Theta_e
338 340 338 338 338 337 337 337 336 335 335 335 335 335 336 335 336 336 336 335 334 332 331 329 327 326 325 325 325 326 327 328 327 328 329 327 324 320 322 329 334 333 334
340 341 337 338 338 338 337 337 337 336 335 335 335 336 336 336 336 335 335 334 332 331 329 328 326 325 325 326 326 327 325 326 327 327 324 323 328 323 321 324 331 335 330
340 339 336 335 336 336 337 338 337 337 336 334 333 332 332 332 331 331 331 332 332 330 327 326 326 327 325 323 324 327 327 326 327 326 326 328 333 333 326 321 325 329 329
340 341 338 333 333 335 337 337 335 335 335 333 331 329 329 329 329 328 329 328 328 330 327 321 320 321 323 324 325 327 327 326 327 327 328 331 333 332 324 318 320 325 327
337 339 331 331 330 329 329 329 330 332 331 329 328 326 326 322 319 319 321 321 319 317 316 317 319 323 326 326 324 326 327 329 327 327 329 334 333 333 327 323 321 322 323
332 330 320 319 318 317 318 319 322 325 326 324 321 320 319 318 318 319 318 318 318 317 317 318 320 320 320 321 320 321 324 326 329 331 333 334 331 333 329 325 325 328 322
326 324 315 315 316 316 317 317 318 319 319 319 319 319 318 318 318 319 318 316 310 308 309 310 311 313 314 314 315 318 318 317 325 331 331 333 334 331 330 326 324 322 321
326 327 316 316 316 315 316 317 318 319 319 319 319 319 318 317 317 317 317 315 309 308 309 310 310 310 309 308 308 310 314 320 322 330 331 332 331 329 328 328 328 325 323
326 328 327 324 316 315 314 313 314 318 319 319 319 319 318 316 315 316 316 311 309 308 309 309 309 309 309 308 307 308 311 316 321 330 329 330 330 330 327 326 327 329 329
326 329 330 329 328 329 324 309 309 311 316 319 320 320 319 318 320 316 316 312 308 308 310 309 309 309 309 309 309 308 309 319 326 325 326 328 328 325 325 324 325 325 328
328 330 330 329 328 327 326 316 317 315 316 320 321 320 322 328 327 326 323 314 310 310 312 310 309 309 310 315 317 315 311 323 323 323 324 325 323 323 323 322 322 322 324
331 330 332 332 329 326 324 327 327 325 327 328 329 329 328 328 327 324 324 321 321 320 316 319 318 316 319 319 318 319 319 320 318 319 320 321 317 313 319 319 320 321 320
330 329 330 334 329 327 326 326 326 326 326 327 329 329 328 327 327 326 325 324 323 321 321 320 321 320 320 316 316 316 317 317 316 316 317 316 308 305 308 312 316 319 319
329 328 330 334 326 323 327 326 326 326 325 326 327 327 326 325 325 324 323 321 320 319 320 320 320 320 319 314 313 311 313 311 312 313 313 312 307 306 305 305 308 315 320
328 328 330 333 327 326 326 327 326 326 325 322 325 324 322 323 323 321 320 319 318 318 318 318 318 318 316 314 312 312 312 312 312 312 312 311 308 307 307 308 308 307 311
327 329 330 332 329 325 325 325 325 323 322 321 320 317 313 320 321 320 318 318 317 317 317 317 318 318 316 314 313 312 312 311 311 312 311 311 309 307 306 307 307 307 307
327 328 331 331 329 324 324 323 321 320 319 320 319 319 317 315 316 317 318 318 317 317 317 317 317 317 317 316 314 312 312 312 312 311 311 309 310 309 307 306 306 306 307
327 328 329 330 326 323 322 321 321 320 320 320 319 318 319 318 317 315 317 317 317 317 317 317 316 316 317 316 315 313 312 311 311 311 310 310 309 310 309 308 305 305 305
326 326 328 331 322 321 322 321 321 320 319 317 316 316 316 313 314 311 312 314 315 317 316 317 316 316 316 316 315 314 312 311 312 311 310 310 310 309 309 309 307 304 304
325 326 327 329 321 321 322 321 318 317 317 316 316 315 315 314 313 312 313 313 313 314 314 314 314 315 315 315 315 314 313 312 311 311 311 310 309 310 308 308 308 306 306
327 327 327 323 321 319 318 317 316 316 316 316 315 315 314 313 310 309 310 310 310 310 309 307 309 311 312 313 314 315 315 313 312 311 311 311 310 309 308 309 309 308 307
325 325 322 319 317 316 316 316 315 314 315 315 315 313 312 311 309 309 307 307 307 307 306 306 307 309 310 311 312 313 314 314 313 313 311 311 310 309 308 308 309 308 307
320 319 318 317 316 315 314 314 314 314 314 313 313 312 311 310 308 307 306 307 307 307 307 307 307 307 308 309 309 311 312 312 313 312 313 312 311 310 308 308 308 307 305
318 317 316 315 315 313 312 313 313 313 313 312 312 311 309 307 306 305 305 306 306 305 306 306 305 306 306 306 307 307 308 310 311 311 311 312 311 310 309 308 308 306 304
317 317 316 315 314 314 313 312 312 313 313 312 311 308 306 306 305 304 304 304 304 304 305 305 305 305 305 305 305 306 307 307 308 308 309 310 311 310 309 308 308 305 304
317 316 315 315 314 313 313 313 313 312 311 309 308 307 305 304 303 303 303 304 304 304 304 303 304 303 303 302 302 302 301 301 302 301 301 305 307 308 308 307 305 304 304
Wind_Speed
10 6 8 5 6 7 8 6 4 4 4 2 2 3 2 2 2 4 4 3 5 6 6 4 4 6 9 11 11 14 13 11 9 9 9 9 8 6 5 3 2 3 5
11 6 8 6 5 5 6 5 4 4 3 3 3 2 3 3 5 5 5 6 6 7 8 10 11 13 16 18 16 14 14 15 12 11 9 8 8 9 5 3 3 3 2
12 8 7 8 9 7 6 5 4 3 3 2 2 4 5 7 7 8 9 9 10 11 13 14 16 18 16 16 16 15 17 15 13 11 9 6 13 9 6 5 6 5 4
13 11 8 10 9 8 6 4 3 2 1 1 1 3 5 7 8 8 10 11 13 15 15 15 15 15 14 12 12 11 13 15 14 13 10 8 10 12 8 7 6 6 6
14 9 11 12 10 8 5 3 2 1 2 3 4 4 6 8 9 10 10 11 12 13 14 13 13 13 13 12 14 13 11 13 15 15 11 14 10 13 7 7 4 6 6
13 10 13 12 10 7 5 4 3 2 4 5 6 6 8 9 10 10 9 9 9 10 10 11 11 12 12 11 11 12 14 13 14 12 14 23 12 13 10 9 8 9 7
14 11 12 11 9 6 3 2 2 2 3 4 4 6 7 8 8 8 8 8 9 9 10 11 11 11 11 11 12 11 10 12 12 10 20 23 14 14 14 11 11 9 9
13 11 11 10 8 6 4 2 2 3 3 3 5 6 7 7 7 8 7 7 9 9 12 13 14 14 13 13 12 11 10 9 7 10 14 16 14 6 14 14 15 14 13
12 10 8 7 7 5 5 4 3 3 4 5 6 6 7 8 8 8 8 9 11 13 15 17 17 16 16 15 14 13 11 9 1 8 10 12 15 13 15 15 15 15 15
11 9 7 7 4 4 5 5 4 3 3 4 5 7 9 10 10 10 9 11 12 13 15 17 17 17 17 16 13 12 11 6 6 8 10 14 15 16 13 13 16 18 19
11 9 7 4 4 4 4 6 8 6 7 8 10 10 11 7 8 10 15 12 14 15 17 19 19 19 18 14 17 14 10 5 6 6 11 15 16 14 13 15 15 16 17
12 8 6 5 3 3 3 3 2 3 3 2 3 6 7 8 9 13 13 18 18 18 20 18 19 18 14 10 14 15 9 10 8 9 13 19 17 15 16 15 15 16 16
12 10 8 5 2 3 1 2 2 3 4 4 7 7 7 9 8 10 10 12 13 16 12 15 13 12 13 13 11 11 11 10 9 10 15 18 14 13 13 15 16 17 17
12 11 7 4 1 1 3 1 1 2 2 4 5 8 8 8 9 10 10 12 13 13 14 13 13 14 14 13 12 12 10 10 8 10 16 17 13 12 12 14 14 13 16
11 10 8 6 4 1 0 0 1 2 2 3 4 6 7 7 8 10 11 12 13 13 14 14 14 14 14 13 13 12 11 11 11 10 12 17 15 13 13 13 14 15 15
12 11 10 8 6 3 3 3 2 1 3 3 4 5 7 6 8 10 11 12 13 13 14 15 15 16 15 14 14 14 14 13 13 13 11 17 17 15 14 15 16 17 18
11 11 10 9 8 6 5 3 2 2 3 3 4 5 7 9 10 12 12 13 15 16 18 18 18 19 19 18 18 18 17 16 15 14 14 12 16 16 14 14 15 17 18
11 9 10 10 10 7 7 5 3 3 3 4 5 7 8 8 11 14 14 15 17 19 20 20 21 21 21 22 22 21 19 20 18 18 17 15 15 15 16 16 13 14 17
9 10 11 12 10 7 7 5 5 5 4 6 6 6 10 11 12 16 18 21 22 21 23 23 24 24 24 25 26 27 26 24 23 22 21 20 20 21 16 18 16 14 15
8 9 11 10 9 8 7 6 6 6 6 8 8 7 9 9 14 19 20 21 22 20 22 24 26 27 29 30 31 31 32 31 29 27 25 25 24 23 20 21 19 17 14
4 6 9 11 13 6 6 7 7 9 9 8 8 9 10 13 23 24 18 17 19 20 23 27 29 29 30 30 31 33 34 36 36 35 32 29 27 26 25 21 21 16 16
7 8 7 5 2 2 4 3 5 6 6 9 8 13 13 18 21 20 20 20 20 22 25 26 26 29 30 28 30 33 35 36 36 37 40 38 35 33 30 26 24 19 18
9 8 7 6 5 5 4 3 5 7 10 13 15 17 17 22 21 20 20 20 21 21 23 24 25 26 31 31 29 31 33 34 32 34 33 38 36 34 36 32 28 26 21
10 9 8 6 4 6 2 5 10 10 12 14 16 19 23 21 20 21 21 21 21 21 22 23 22 25 26 31 29 30 34 37 38 38 41 35 33 34 31 33 30 27 22
7 6 5 3 4 6 6 10 13 14 19 25 23 20 21 19 20 21 22 23 27 22 20 19 19 18 19 21 23 23 24 26 27 25 28 29 32 31 30 32 30 24 21
4 4 4 6 8 8 9 13 16 25 33 18 19 20 19 21 22 22 23 21 20 18 17 17 17 16 17 17 16 15 13 13 17 14 18 23 26 27 27 23 25 24 19
Wind_Direction
146 213 187 147 118 108 98 105 113 114 115 159 191 241 274 276 270 285 299 335 330 330 333 321 325 326 321 313 308 311 294 283 275 279 287 295 292 297 299 337 9 201 122
146 144 166 144 121 116 116 111 108 90 119 167 197 228 268 291 302 310 306 305 310 302 297 297 297 298 299 299 292 277 266 270 262 261 268 276 292 270 280 271 235 248 58
132 130 154 161 145 128 134 138 129 147 189 210 237 284 305 303 306 308 311 313 308 307 305 303 303 302 309 309 298 272 252 252 250 245 249 251 265 239 268 253 243 239 229
122 119 149 140 132 146 142 128 138 156 192 255 254 280 295 308 321 318 312 311 312 315 320 324 322 320 318 313 308 291 267 253 244 242 242 260 236 268 265 241 243 235 219
121 134 137 126 120 118 119 129 172 190 220 271 304 318 317 330 333 336 327 322 323 325 326 324 321 322 322 314 298 296 272 257 252 252 250 258 289 234 258 237 241 250 242
116 127 120 116 114 115 132 151 180 247 305 315 327 342 353 347 347 342 339 336 337 336 337 336 331 328 325 317 311 303 290 273 257 254 260 240 217 264 252 235 215 230 245
117 116 120 115 116 110 92 50 347 330 322 340 342 352 346 347 345 342 341 342 347 349 350 351 350 345 341 336 329 315 299 282 276 261 263 267 209 208 246 244 245 234 236
121 116 121 110 94 79 57 360 339 320 319 328 333 337 343 345 337 331 334 339 346 352 352 349 347 346 344 343 339 328 323 312 280 277 261 286 302 286 255 253 248 249 245
132 127 122 109 96 73 45 17 354 324 317 329 336 345 345 338 332 328 330 341 343 345 346 345 342 341 340 338 338 335 332 330 304 283 299 267 279 273 265 265 263 258 256
146 142 137 128 106 65 10 50 40 21 2 354 349 347 343 346 343 345 336 345 341 341 339 336 334 335 335 334 331 332 337 9 26 298 269 266 270 272 261 263 253 256 246
160 154 145 127 97 78 71 5 23 21 23 18 11 6 19 12 342 350 312 326 328 328 330 328 330 332 335 339 337 331 337 3 291 284 278 272 280 273 267 264 268 265 263
169 162 165 141 127 110 71 52 9 2 5 3 0 347 355 328 326 333 332 330 332 326 334 336 333 336 352 326 315 320 329 281 299 275 269 266 278 278 274 270 268 271 270
183 176 178 152 120 99 26 48 15 0 339 344 356 338 336 330 330 330 323 326 321 323 333 320 319 321 298 309 300 291 285 291 287 274 271 275 286 285 283 278 268 263 265
181 183 176 160 169 146 121 36 6 1 323 9 317 352 335 338 327 324 326 319 322 316 315 319 316 308 313 309 301 297 289 282 273 264 276 276 285 285 284 286 285 272 261
185 184 187 203 200 212 317 221 341 23 331 358 3 349 350 346 335 337 329 329 323 320 318 315 311 310 307 307 298 291 288 282 278 270 264 276 280 277 276 276 278 280 271
193 195 201 215 217 216 185 206 192 354 1 351 4 339 358 355 334 339 325 323 324 319 311 307 302 300 299 291 289 285 276 268 266 261 263 279 282 276 269 272 272 271 272
203 211 199 214 210 206 198 194 171 288 349 337 337 342 342 339 325 320 315 317 317 313 311 310 304 302 300 298 293 290 281 274 267 255 257 257 272 278 267 254 262 266 265
213 210 214 212 209 206 199 197 231 279 304 321 321 322 318 322 318 315 309 306 303 301 305 301 299 295 291 289 287 284 280 274 267 258 253 251 244 257 266 264 250 262 263
224 233 221 202 207 212 210 219 259 271 316 296 308 309 282 313 301 311 313 310 303 300 298 296 294 290 288 287 285 283 277 271 265 263 257 250 240 229 244 258 256 261 263
242 226 218 197 211 213 217 238 270 283 295 300 297 285 308 319 307 314 311 307 302 299 295 292 288 289 284 283 284 281 275 272 268 261 258 253 249 241 230 241 247 254 254
171 185 199 183 206 208 230 251 270 284 292 289 297 321 326 297 317 314 307 297 298 297 291 291 291 287 284 283 284 278 275 272 264 258 256 254 252 248 241 234 230 237 252
121 129 134 132 149 201 244 284 325 316 299 311 307 315 314 307 316 314 304 307 304 300 297 294 291 288 285 282 279 279 280 275 265 259 251 246 245 242 242 237 233 232 221
99 103 116 116 96 85 79 358 344 326 309 311 303 312 312 318 316 314 312 305 301 299 296 291 289 288 288 285 281 278 281 274 279 267 261 243 243 243 233 233 232 224 223
100 104 106 98 72 40 39 13 360 335 324 316 314 311 310 314 309 312 309 308 305 305 300 297 294 284 287 287 288 278 276 280 278 282 274 273 251 240 242 232 233 224 224
95 93 83 46 22 5 359 339 340 327 321 314 304 305 314 309 311 313 311 306 307 304 298 298 302 300 298 293 292 294 286 280 284 294 286 280 264 246 236 230 240 229 229
63 53 16 350 325 315 319 322 310 302 309 309 313 316 310 311 312 310 310 302 303 300 302 305 302 300 285 304 300 306 313 312 288 302 301 287 279 272 250 240 233 241 237